Total_Precipitation_Accumulation
0.08 0.09 0.10 0.11 0.07 0.03 0.02 0.01 0.00 0.00 0.00 0.00 0.01 0.00 0.00 0.01 0.02 0.07 0.06 0.05 0.05 0.08 0.16 0.31 0.42 0.50 0.54 0.55 0.52 0.47 0.45 0.45 0.50 0.54 0.50 0.51 0.55 0.56 0.62 0.61 0.64 0.70 0.75 0.80 0.77 0.74 0.74 0.73 0.73
0.09 0.13 0.15 0.14 0.06 0.02 0.02 0.01 0.00 0.00 0.01 0.00 0.01 0.00 0.00 0.01 0.02 0.03 0.05 0.03 0.03 0.05 0.11 0.21 0.37 0.47 0.52 0.54 0.53 0.48 0.44 0.42 0.45 0.51 0.53 0.56 0.61 0.65 0.63 0.65 0.68 0.71 0.77 0.77 0.80 0.79 0.76 0.74 0.70
0.15 0.19 0.20 0.15 0.05 0.02 0.01 0.01 0.00 0.01 0.01 0.01 0.01 0.01 0.01 0.02 0.02 0.03 0.03 0.03 0.03 0.06 0.10 0.20 0.38 0.48 0.55 0.60 0.58 0.53 0.48 0.47 0.49 0.54 0.57 0.63 0.70 0.72 0.67 0.69 0.71 0.71 0.73 0.70 0.73 0.76 0.71 0.66 0.61
0.22 0.29 0.25 0.14 0.03 0.01 0.01 0.01 0.00 0.01 0.01 0.01 0.01 0.02 0.02 0.02 0.03 0.03 0.04 0.03 0.04 0.07 0.12 0.21 0.38 0.49 0.57 0.64 0.69 0.63 0.55 0.54 0.56 0.61 0.66 0.70 0.71 0.72 0.71 0.70 0.63 0.62 0.66 0.67 0.67 0.70 0.67 0.66 0.63
0.31 0.31 0.23 0.11 0.03 0.02 0.01 0.01 0.01 0.02 0.03 0.02 0.02 0.02 0.04 0.04 0.03 0.05 0.06 0.05 0.06 0.08 0.14 0.22 0.40 0.51 0.58 0.65 0.72 0.70 0.64 0.61 0.61 0.66 0.72 0.74 0.74 0.72 0.70 0.69 0.63 0.57 0.55 0.60 0.64 0.67 0.67 0.71 0.65
0.40 0.31 0.16 0.05 0.02 0.01 0.01 0.02 0.02 0.03 0.03 0.04 0.06 0.06 0.06 0.07 0.07 0.09 0.09 0.09 0.08 0.10 0.15 0.24 0.44 0.56 0.61 0.67 0.75 0.75 0.73 0.71 0.70 0.72 0.78 0.80 0.79 0.76 0.70 0.65 0.63 0.60 0.54 0.53 0.57 0.63 0.70 0.74 0.66
0.41 0.28 0.12 0.03 0.02 0.01 0.01 0.02 0.03 0.04 0.05 0.06 0.08 0.09 0.07 0.10 0.12 0.13 0.14 0.14 0.14 0.14 0.19 0.27 0.41 0.56 0.67 0.77 0.82 0.82 0.84 0.83 0.80 0.78 0.82 0.85 0.83 0.80 0.74 0.68 0.62 0.60 0.58 0.57 0.54 0.56 0.64 0.69 0.67
0.43 0.36 0.16 0.05 0.03 0.03 0.01 0.02 0.03 0.05 0.06 0.06 0.08 0.10 0.10 0.10 0.13 0.17 0.20 0.22 0.23 0.23 0.25 0.32 0.41 0.54 0.66 0.78 0.82 0.83 0.87 0.93 0.92 0.91 0.81 0.74 0.77 0.82 0.76 0.62 0.59 0.58 0.58 0.58 0.53 0.51 0.55 0.56 0.57
0.56 0.51 0.22 0.07 0.04 0.03 0.02 0.02 0.03 0.05 0.06 0.08 0.07 0.09 0.11 0.12 0.17 0.22 0.32 0.37 0.38 0.36 0.35 0.39 0.47 0.58 0.71 0.80 0.77 0.84 0.91 0.94 0.93 0.89 0.73 0.69 0.70 0.68 0.67 0.54 0.52 0.58 0.60 0.59 0.59 0.60 0.55 0.49 0.41
0.71 0.54 0.21 0.08 0.06 0.05 0.05 0.05 0.05 0.06 0.08 0.09 0.08 0.10 0.13 0.17 0.25 0.28 0.34 0.39 0.43 0.45 0.44 0.47 0.53 0.65 0.78 0.81 0.82 0.91 0.94 0.89 0.84 0.78 0.74 0.70 0.71 0.65 0.59 0.54 0.51 0.56 0.59 0.62 0.65 0.65 0.60 0.52 0.41
0.66 0.48 0.21 0.10 0.08 0.10 0.09 0.08 0.07 0.08 0.09 0.12 0.13 0.12 0.15 0.25 0.33 0.34 0.36 0.42 0.45 0.51 0.52 0.53 0.62 0.70 0.81 0.89 0.85 0.89 0.97 0.98 0.93 0.86 0.83 0.80 0.84 0.79 0.66 0.59 0.54 0.58 0.58 0.61 0.62 0.63 0.59 0.59 0.57
0.60 0.40 0.27 0.16 0.12 0.14 0.15 0.12 0.10 0.10 0.10 0.11 0.17 0.18 0.19 0.25 0.32 0.37 0.42 0.49 0.56 0.60 0.59 0.61 0.67 0.80 0.91 0.95 0.89 0.88 0.88 0.90 0.91 0.92 0.94 0.94 0.88 0.77 0.66 0.59 0.51 0.49 0.50 0.55 0.59 0.57 0.54 0.59 0.62
0.56 0.37 0.27 0.21 0.17 0.17 0.19 0.18 0.15 0.13 0.10 0.12 0.21 0.26 0.29 0.30 0.37 0.42 0.49 0.56 0.60 0.64 0.67 0.68 0.71 0.80 0.96 1.06 0.98 0.92 0.90 0.85 0.89 0.97 1.00 0.94 0.89 0.78 0.69 0.64 0.60 0.53 0.49 0.51 0.55 0.57 0.55 0.57 0.62
0.52 0.41 0.32 0.27 0.25 0.23 0.25 0.23 0.19 0.17 0.14 0.16 0.25 0.30 0.36 0.39 0.45 0.48 0.53 0.55 0.59 0.65 0.72 0.79 0.81 0.84 0.96 1.04 0.99 0.92 0.94 0.97 0.98 0.94 0.96 0.98 0.95 0.88 0.83 0.76 0.72 0.65 0.58 0.56 0.60 0.63 0.62 0.59 0.57
0.51 0.55 0.48 0.36 0.32 0.32 0.33 0.35 0.24 0.17 0.17 0.23 0.28 0.32 0.37 0.44 0.49 0.53 0.56 0.58 0.59 0.68 0.77 0.84 0.93 0.94 0.97 1.02 1.06 1.03 0.98 0.98 0.96 0.89 0.90 0.94 0.98 0.95 0.85 0.81 0.77 0.74 0.72 0.68 0.63 0.62 0.68 0.63 0.58
0.75 0.85 0.72 0.42 0.33 0.38 0.49 0.46 0.22 0.20 0.21 0.28 0.30 0.36 0.38 0.41 0.47 0.55 0.62 0.71 0.77 0.84 0.87 0.92 1.00 1.01 1.02 1.06 1.13 1.15 1.12 1.07 0.99 0.92 0.91 0.89 0.94 1.01 0.99 0.90 0.84 0.83 0.85 0.83 0.76 0.66 0.65 0.65 0.63
1.09 0.98 0.63 0.37 0.31 0.40 0.51 0.44 0.25 0.23 0.27 0.30 0.32 0.38 0.41 0.45 0.50 0.54 0.62 0.72 0.82 0.89 0.94 1.02 1.06 1.07 1.07 1.09 1.21 1.26 1.24 1.17 1.10 1.02 0.93 0.93 0.99 0.99 1.01 0.98 0.97 1.01 1.02 0.96 0.91 0.80 0.78 0.74 0.71
0.87 0.66 0.50 0.39 0.34 0.38 0.43 0.34 0.26 0.26 0.29 0.29 0.31 0.35 0.40 0.44 0.47 0.54 0.65 0.78 0.91 0.97 1.00 1.08 1.14 1.22 1.26 1.33 1.36 1.44 1.41 1.31 1.23 1.13 1.01 0.91 0.93 1.00 1.06 1.01 1.00 1.04 1.07 1.07 1.10 1.04 0.93 0.86 0.84
0.60 0.57 0.48 0.37 0.32 0.40 0.41 0.32 0.29 0.30 0.30 0.29 0.33 0.34 0.38 0.41 0.43 0.49 0.62 0.77 0.93 0.99 1.07 1.13 1.18 1.27 1.37 1.40 1.32 1.33 1.32 1.30 1.28 1.22 1.13 1.07 1.00 0.98 1.07 1.06 1.03 1.05 1.02 0.96 0.95 1.05 1.06 0.99 0.94
0.76 0.74 0.54 0.41 0.35 0.42 0.42 0.35 0.31 0.35 0.34 0.31 0.33 0.35 0.39 0.39 0.42 0.49 0.57 0.72 0.91 0.99 1.07 1.15 1.15 1.25 1.31 1.28 1.29 1.29 1.34 1.38 1.40 1.36 1.29 1.15 1.05 0.99 1.04 1.09 1.06 0.99 0.99 0.95 0.87 0.88 0.97 0.97 0.95
0.84 0.67 0.51 0.50 0.51 0.53 0.53 0.46 0.32 0.35 0.35 0.32 0.29 0.32 0.37 0.38 0.39 0.45 0.54 0.66 0.79 0.90 1.01 1.15 1.13 1.14 1.30 1.38 1.55 1.62 1.66 1.67 1.65 1.52 1.38 1.21 1.06 0.97 0.96 1.06 1.13 1.07 0.98 0.91 0.86 0.84 0.85 0.91 0.90
0.82 0.48 0.50 0.61 0.85 0.96 0.75 0.78 0.37 0.36 0.40 0.35 0.32 0.33 0.33 0.34 0.37 0.43 0.49 0.61 0.73 0.78 0.93 1.09 1.14 1.13 1.29 1.46 1.52 1.50 1.47 1.45 1.37 1.35 1.31 1.23 1.14 1.06 1.02 1.08 1.15 1.18 1.06 0.92 0.88 0.88 0.85 0.87 0.91
0.64 0.51 0.65 0.80 1.01 1.16 0.83 0.86 0.49 0.38 0.44 0.41 0.35 0.35 0.31 0.28 0.31 0.40 0.48 0.55 0.66 0.76 0.95 1.09 1.12 1.20 1.31 1.43 1.50 1.51 1.48 1.41 1.43 1.46 1.41 1.39 1.26 1.16 1.11 1.12 1.15 1.17 1.12 1.01 0.94 0.91 0.91 0.88 0.88
0.66 0.80 0.96 1.15 1.62 1.78 0.76 0.66 0.55 0.42 0.42 0.39 0.35 0.36 0.31 0.26 0.28 0.37 0.49 0.56 0.65 0.79 0.95 1.12 1.21 1.24 1.34 1.46 1.57 1.55 1.50 1.53 1.59 1.56 1.56 1.52 1.47 1.36 1.24 1.19 1.17 1.14 1.10 1.05 1.01 0.98 0.96 0.92 0.88
1.06 1.56 2.28 2.39 2.39 1.42 0.42 0.44 0.47 0.32 0.28 0.30 0.32 0.35 0.31 0.28 0.29 0.37 0.48 0.60 0.68 0.77 0.88 1.08 1.25 1.23 1.23 1.36 1.51 1.51 1.52 1.62 1.62 1.63 1.59 1.59 1.51 1.39 1.29 1.20 1.15 1.14 1.12 1.07 1.05 1.05 1.05 1.04 1.04
1.06 1.36 1.83 1.71 1.11 0.56 0.35 0.44 0.39 0.24 0.20 0.21 0.23 0.28 0.27 0.29 0.33 0.39 0.44 0.55 0.68 0.76 0.84 0.99 1.18 1.21 1.17 1.21 1.33 1.44 1.50 1.66 1.74 1.81 1.76 1.67 1.58 1.45 1.35 1.34 1.31 1.23 1.17 1.17 1.15 1.10 1.07 1.08 1.07
0.94 1.01 0.93 1.26 0.90 0.55 0.43 0.35 0.28 0.17 0.17 0.18 0.21 0.24 0.24 0.25 0.30 0.39 0.41 0.49 0.65 0.77 0.80 0.81 1.05 1.15 1.14 1.18 1.24 1.36 1.43 1.49 1.54 1.67 1.78 1.75 1.65 1.53 1.46 1.39 1.39 1.36 1.33 1.34 1.34 1.26 1.15 1.12 1.08
0.77 0.93 1.18 1.71 1.47 0.77 0.41 0.28 0.28 0.24 0.22 0.19 0.20 0.23 0.25 0.28 0.31 0.39 0.41 0.46 0.58 0.73 0.79 0.75 0.92 1.06 1.05 1.13 1.20 1.26 1.34 1.42 1.43 1.50 1.55 1.60 1.64 1.58 1.54 1.49 1.41 1.34 1.32 1.36 1.45 1.41 1.26 1.21 1.16
0.84 1.13 1.47 1.58 1.22 0.89 0.56 0.40 0.33 0.30 0.27 0.24 0.23 0.25 0.28 0.33 0.38 0.45 0.48 0.51 0.58 0.70 0.76 0.77 0.84 1.04 1.11 1.11 1.14 1.18 1.26 1.37 1.45 1.49 1.45 1.40 1.49 1.58 1.56 1.50 1.45 1.38 1.36 1.36 1.39 1.39 1.39 1.35 1.27
0.77 0.93 1.15 1.57 1.22 0.74 0.63 0.43 0.27 0.27 0.27 0.25 0.27 0.26 0.27 0.30 0.35 0.40 0.47 0.54 0.64 0.77 0.82 0.79 0.83 0.97 1.15 1.19 1.12 1.15 1.22 1.31 1.41 1.43 1.41 1.39 1.33 1.35 1.46 1.52 1.52 1.45 1.38 1.40 1.47 1.44 1.42 1.43 1.39